Regional Weather Roundup
Issued by NWS

Home | Current Version | Previous Version | Graphics & Text | Print | Product List | Glossary On
Versions: 1 2 3 4 5 6 7 8 9 10 11 12 13 14 15 16 17 18 19 20 21 22 23 24 25 26 27 28 29 30 31 32 33 34 35 36 37 38 39 40 41 42 43 44 45 46 47 48 49 50
000
ASUS43 KFSD 172202
RWRSD

WEATHER ROUNDUP FOR SOUTH DAKOTA
NATIONAL WEATHER SERVICE SIOUX FALLS SD
500 PM CDT FRI APR 17 2015

NOTE: "FAIR" INDICATES FEW OR NO CLOUDS BELOW 12,000 FEET WITH NO
SIGNIFICANT WEATHER AND/OR OBSTRUCTIONS TO VISIBILITY.


SDZ001>005-009-010-012>017-172300-
NORTHWEST AND NORTH CENTRAL SOUTH DAKOTA

CITY           SKY/WX    TMP DP  RH WIND       PRES   REMARKS
BUFFALO          N/A     65  28  24 VRB5      30.05
FAITH            N/A     67  23  19 VRB7      30.10F
MOBRIDGE       PTSUNNY   72  22  15 CALM      30.06F
$$

SDZ012>016-024>037-041>051-057-063-072>074-172300-
SOUTHWEST AND SOUTH CENTRAL SOUTH DAKOTA

CITY           SKY/WX    TMP DP  RH WIND       PRES   REMARKS
RAPID CTY ARPT LGT RAIN  53  38  56 S12       30.14S
PIERRE         CLOUDY    71  31  22 E9        30.06F
CUSTER         LGT RAIN  40  35  83 NE9       30.15F
ELLSWORTH AFB  CLOUDY    58  32  38 S17       30.12F
PHILIP         CLOUDY    65  31  28 E8        30.09F
PINE RIDGE     LGT RAIN  49  44  83 E12       30.11S
WINNER         CLOUDY    62  51  67 SW12      30.08F
$$

SDZ004>011-016>023-039-040-172300-
NORTHEAST SOUTH DAKOTA

CITY           SKY/WX    TMP DP  RH WIND       PRES   REMARKS
ABERDEEN       MOSUNNY   73  23  15 NW8       30.07F
WATERTOWN      SUNNY     70  16  12 NW9       30.07F
BROOKINGS      SUNNY     72  27  18 N6        30.06S
SISSETON         N/A     72  14  11 NW7       30.05F
$$

SDZ017-020-022-023-036>040-048>070-172300-
SOUTHEAST SOUTH DAKOTA

CITY           SKY/WX    TMP DP  RH WIND       PRES   REMARKS
SIOUX FALLS    PTSUNNY   75  43  31 NE5       30.03F
HURON          MOSUNNY   74  30  19 N7        30.05F
MITCHELL       CLOUDY    74  38  27 N12       30.05F
YANKTON        CLOUDY    66  48  52 SW6       30.03F
$$

ABBREVIATIONS USED IN REMARKS
   TC - TEMPERATURE IN CELSIUS
  WCI - WIND CHILL INDEX
   HX - HEAT INDEX
  VSB - VISIBILITY




USA.gov is the U.S. government's official web portal to all federal, state and local government web resources and services.